TimeEST,TemperatureF,Dew PointF,Humidity,Sea Level PressureIn,VisibilityMPH,Wind Direction,Wind SpeedMPH,Gust SpeedMPH,PrecipitationIn,Events,Conditions,WindDirDegrees,DateUTC
12:15 AM,64.4,60.8,88,30.08,10.0,Calm,Calm,-,N/A,,Overcast,0,2012-12-12 05:15:00
12:35 AM,64.4,60.8,88,30.08,10.0,Calm,Calm,-,N/A,,Overcast,0,2012-12-12 05:35:00
12:55 AM,64.4,60.8,88,30.08,10.0,NW,3.5,-,N/A,,Overcast,320,2012-12-12 05:55:00
1:15 AM,64.4,60.8,88,30.08,10.0,NW,5.8,-,N/A,,Overcast,320,2012-12-12 06:15:00
1:35 AM,64.4,60.8,88,30.09,10.0,NW,5.8,-,N/A,,Overcast,320,2012-12-12 06:35:00
1:55 AM,62.6,60.8,94,30.09,7.0,NW,5.8,-,N/A,,Overcast,320,2012-12-12 06:55:00
2:15 AM,60.8,59.0,94,30.10,10.0,NNW,6.9,-,N/A,,Overcast,330,2012-12-12 07:15:00
2:35 AM,60.8,59.0,94,30.11,10.0,NW,5.8,-,N/A,,Overcast,310,2012-12-12 07:35:00
2:55 AM,60.8,57.2,88,30.11,10.0,NW,4.6,-,N/A,,Overcast,320,2012-12-12 07:55:00
3:15 AM,60.8,55.4,82,30.09,10.0,NNW,4.6,-,N/A,,Overcast,340,2012-12-12 08:15:00
3:35 AM,60.8,55.4,82,30.08,10.0,North,3.5,-,N/A,,Overcast,350,2012-12-12 08:35:00
3:55 AM,60.8,57.2,88,30.08,10.0,Calm,Calm,-,N/A,,Overcast,0,2012-12-12 08:55:00
4:15 AM,60.8,57.2,88,30.08,10.0,Calm,Calm,-,N/A,,Overcast,0,2012-12-12 09:15:00
4:35 AM,60.8,57.2,88,30.07,10.0,North,4.6,-,N/A,,Overcast,360,2012-12-12 09:35:00
4:55 AM,60.8,57.2,88,30.07,10.0,NNE,3.5,-,N/A,,Overcast,20,2012-12-12 09:55:00
5:15 AM,60.8,57.2,88,30.08,10.0,NNW,5.8,-,N/A,,Overcast,340,2012-12-12 10:15:00
5:35 AM,60.8,57.2,88,30.09,10.0,NNW,4.6,-,N/A,,Overcast,340,2012-12-12 10:35:00
5:55 AM,59.0,55.4,88,30.09,10.0,North,5.8,-,N/A,,Overcast,10,2012-12-12 10:55:00
6:15 AM,59.0,55.4,88,30.09,10.0,North,4.6,-,N/A,,Overcast,350,2012-12-12 11:15:00
6:35 AM,59.0,55.4,88,30.10,10.0,NNW,4.6,-,N/A,,Overcast,330,2012-12-12 11:35:00
6:55 AM,59.0,53.6,82,30.09,10.0,North,5.8,-,N/A,,Overcast,10,2012-12-12 11:55:00
7:15 AM,59.0,53.6,82,30.11,10.0,Calm,Calm,-,N/A,,Overcast,0,2012-12-12 12:15:00
7:35 AM,59.0,53.6,82,30.11,10.0,Calm,Calm,-,N/A,,Overcast,0,2012-12-12 12:35:00
7:55 AM,59.0,53.6,82,30.11,10.0,Calm,Calm,-,N/A,,Overcast,0,2012-12-12 12:55:00
8:15 AM,59.0,55.4,88,30.11,10.0,NNE,3.5,-,N/A,,Overcast,20,2012-12-12 13:15:00
8:35 AM,59.0,55.4,88,30.12,10.0,Calm,Calm,-,N/A,,Overcast,0,2012-12-12 13:35:00
8:55 AM,59.0,55.4,88,30.12,7.0,NE,3.5,-,N/A,,Overcast,50,2012-12-12 13:55:00
9:15 AM,59.0,55.4,88,30.12,10.0,NNE,3.5,-,N/A,,Overcast,30,2012-12-12 14:15:00
9:35 AM,59.0,57.2,94,30.12,10.0,NE,3.5,-,N/A,,Overcast,40,2012-12-12 14:35:00
9:55 AM,60.8,59.0,94,30.13,10.0,Calm,Calm,-,N/A,,Overcast,0,2012-12-12 14:55:00
10:15 AM,59.0,59.0,100,30.14,10.0,NW,3.5,-,N/A,,Overcast,320,2012-12-12 15:15:00
10:35 AM,59.0,57.2,94,30.16,5.0,NW,3.5,-,N/A,,Overcast,310,2012-12-12 15:35:00
10:55 AM,59.0,59.0,100,30.16,4.0,NNW,4.6,-,N/A,,Overcast,330,2012-12-12 15:55:00
11:15 AM,59.0,57.2,94,30.16,5.0,WNW,3.5,-,N/A,,Overcast,290,2012-12-12 16:15:00
11:35 AM,59.0,57.2,94,30.14,5.0,NW,4.6,-,N/A,,Overcast,310,2012-12-12 16:35:00
11:55 AM,59.0,57.2,94,30.13,4.0,NW,3.5,-,N/A,,Overcast,320,2012-12-12 16:55:00
12:15 PM,59.0,57.2,94,30.13,4.0,NW,4.6,-,N/A,,Overcast,310,2012-12-12 17:15:00
12:35 PM,57.2,55.4,94,30.13,4.0,WNW,4.6,-,N/A,,Overcast,300,2012-12-12 17:35:00
12:55 PM,57.2,55.4,94,30.13,5.0,NW,4.6,-,N/A,,Overcast,310,2012-12-12 17:55:00
1:15 PM,57.2,55.4,94,30.12,5.0,WNW,3.5,-,N/A,,Overcast,290,2012-12-12 18:15:00
1:35 PM,59.0,57.2,94,30.13,7.0,West,5.8,-,N/A,,Overcast,280,2012-12-12 18:35:00
1:55 PM,59.0,57.2,94,30.12,4.0,WNW,4.6,-,N/A,,Overcast,300,2012-12-12 18:55:00
2:15 PM,59.0,57.2,94,30.11,4.0,North,4.6,-,N/A,,Overcast,360,2012-12-12 19:15:00
2:35 PM,59.0,59.0,100,30.11,10.0,North,3.5,-,N/A,,Overcast,360,2012-12-12 19:35:00
2:55 PM,59.0,59.0,100,30.10,10.0,NNE,4.6,-,N/A,,Overcast,20,2012-12-12 19:55:00
3:15 PM,60.8,59.0,94,30.09,10.0,NE,6.9,-,N/A,,Overcast,50,2012-12-12 20:15:00
3:35 PM,60.8,59.0,94,30.10,10.0,NNE,4.6,-,N/A,,Mostly Cloudy,30,2012-12-12 20:35:00
3:55 PM,60.8,59.0,94,30.10,10.0,NE,4.6,-,N/A,,Overcast,40,2012-12-12 20:55:00
4:15 PM,60.8,59.0,94,30.12,7.0,NW,6.9,-,N/A,,Overcast,320,2012-12-12 21:15:00
4:35 PM,60.8,59.0,94,30.13,7.0,North,4.6,-,N/A,,Overcast,350,2012-12-12 21:35:00
4:55 PM,60.8,59.0,94,30.13,7.0,Calm,Calm,-,N/A,,Overcast,0,2012-12-12 21:55:00
5:15 PM,59.0,59.0,100,30.12,7.0,Calm,Calm,-,N/A,,Overcast,0,2012-12-12 22:15:00
5:35 PM,59.0,59.0,100,30.13,10.0,Calm,Calm,-,N/A,,Overcast,0,2012-12-12 22:35:00
5:55 PM,59.0,59.0,100,30.13,7.0,ENE,3.5,-,N/A,,Overcast,70,2012-12-12 22:55:00
6:15 PM,59.0,59.0,100,30.15,7.0,Calm,Calm,-,N/A,,Overcast,0,2012-12-12 23:15:00
6:35 PM,59.0,59.0,100,30.13,7.0,ENE,6.9,-,N/A,,Overcast,60,2012-12-12 23:35:00
6:55 PM,59.0,59.0,100,30.09,7.0,NE,11.5,17.3,N/A,,Overcast,40,2012-12-12 23:55:00
7:15 PM,59.0,59.0,100,30.11,10.0,NE,8.1,16.1,N/A,,Overcast,50,2012-12-13 00:15:00
7:35 PM,59.0,59.0,100,30.12,10.0,NE,6.9,-,N/A,,Overcast,50,2012-12-13 00:35:00
7:55 PM,59.0,59.0,100,30.12,10.0,NNE,5.8,-,N/A,,Overcast,30,2012-12-13 00:55:00
8:15 PM,59.0,59.0,100,30.11,10.0,NE,8.1,-,N/A,,Overcast,50,2012-12-13 01:15:00
8:35 PM,60.8,59.0,94,30.10,10.0,ENE,12.7,17.3,N/A,,Overcast,60,2012-12-13 01:35:00
8:55 PM,60.8,59.0,94,30.10,10.0,ENE,16.1,19.6,N/A,,Overcast,70,2012-12-13 01:55:00
9:15 PM,60.8,59.0,94,30.11,10.0,ENE,11.5,-,N/A,,Overcast,60,2012-12-13 02:15:00
9:35 PM,60.8,59.0,94,30.12,10.0,ENE,10.4,-,N/A,,Overcast,70,2012-12-13 02:35:00
9:55 PM,60.8,59.0,94,30.13,10.0,NE,5.8,-,N/A,,Overcast,40,2012-12-13 02:55:00
10:15 PM,60.8,59.0,94,30.15,10.0,NE,4.6,-,N/A,,Overcast,40,2012-12-13 03:15:00
10:35 PM,60.8,59.0,94,30.15,10.0,NE,4.6,-,N/A,,Overcast,40,2012-12-13 03:35:00
10:55 PM,60.8,59.0,94,30.15,10.0,North,3.5,-,N/A,,Overcast,10,2012-12-13 03:55:00
11:15 PM,60.8,59.0,94,30.16,10.0,North,4.6,-,N/A,,Overcast,350,2012-12-13 04:15:00
11:35 PM,60.8,59.0,94,30.16,10.0,North,3.5,-,N/A,,Overcast,360,2012-12-13 04:35:00
11:55 PM,59.0,59.0,100,30.16,7.0,North,4.6,-,N/A,,Overcast,350,2012-12-13 04:55:00